[[{"header":{"parameterUnit":"m.s-1","parameterCategory":1,"la1":30.2992,"la2":30.254,"lo1":-89.0895,"lo2":-89.0443,"dy":0.0025,"dx":0.0025,"nx":19,"ny":19,"refTime":"2026-05-03T09:00:00:Z","depth":0,"parameterNumber":2,"parameterNumberName":"U-component_of_WINDS"},"data":[0,0,0,-1.2342,-1.2343,-1.2354,-1.2354,-1.2373,-1.2374,0,0,0,0,0,0,0,0,0,0,0,-1.2341,-1.2341,-1.2342,-1.2343,-1.2354,-1.2354,-1.2373,-1.2374,0,0,0,0,0,0,0,0,0,0,0,-1.2341,-1.2341,-1.2342,-1.2343,-1.2354,-1.2354,-1.2373,-1.2363,0,0,0,0,0,0,0,0,0,0,-1.2352,-1.2352,-1.2341,-1.2342,-1.2343,-1.2354,-1.2354,-1.2363,-1.2364,-1.237,0,-1.2376,0,-1.2375,-1.2375,-1.2375,0,0,0,-1.2341,-1.2351,-1.2352,-1.2342,-1.2343,-1.2354,-1.2348,-1.2363,-1.2365,-1.2372,-1.2376,-1.2377,-1.2375,-1.2375,-1.2375,-1.2418,-1.2418,0,0,-1.234,-1.2344,-1.2351,-1.2353,-1.2351,-1.2348,-1.2349,-1.2364,-1.2369,-1.2376,-1.2377,-1.2376,-1.2376,-1.2376,-1.2417,-1.2418,0,0,0,-1.234,-1.2344,-1.2345,-1.2353,-1.2354,-1.2348,-1.2349,-1.2368,-1.2368,-1.2377,-1.2376,-1.2376,-1.2376,-1.2417,-1.2417,-1.2434,0,0,0,-1.2339,-1.2344,-1.2345,-1.2347,-1.2354,-1.2361,-1.2353,-1.2367,-1.2369,-1.2376,-1.2376,-1.2376,-1.2417,-1.2417,-1.2433,-1.2441,0,0,0,-1.234,-1.2344,-1.2346,-1.2347,-1.2352,-1.2361,-1.2362,-1.2367,-1.2368,-1.2375,-1.2376,-1.2416,-1.2417,-1.2432,-1.2439,-1.2453,0,0,0,-1.2341,-1.236,-1.2346,-1.2367,-1.2352,-1.2371,-1.2361,-1.2376,-1.2384,-1.2376,-1.2417,-1.2417,-1.2432,-1.2438,-1.2452,-1.2465,-1.2471,0,0,-1.2367,-1.2363,-1.2376,-1.2364,-1.2386,-1.2369,-1.2395,-1.2399,-1.2396,-1.2411,-1.2412,-1.2433,-1.2439,-1.2453,-1.2504,-1.2509,0,0,0,-1.2385,-1.2394,-1.2399,-1.2407,-1.2411,-1.2416,-1.2415,-1.2417,-1.243,-1.2404,-1.2442,-1.2446,-1.2454,-1.246,-1.2464,-1.247,-1.242,-1.242,-1.242,-1.2426,-1.2422,-1.2443,-1.2441,-1.2449,-1.245,-1.2457,-1.246,-1.2453,-1.2463,-1.2466,-1.2498,-1.2505,-1.2508,-1.2515,-1.2474,-1.2474,-1.2474,-1.2474,-1.2463,-1.2475,-1.2468,-1.2484,-1.2481,-1.2496,-1.2498,-1.2494,-1.2507,-1.2494,-1.2501,-1.2486,-1.2513,-1.2519,-1.2475,-1.2475,-1.2475,-1.2475,-1.2474,-1.2489,-1.2494,-1.2496,-1.2509,-1.252,-1.2519,-1.2533,-1.2529,-1.2526,-1.2533,-1.2537,-1.2537,-1.2536,-1.2536,-1.2536,-1.2536,-1.2536,-1.2536,-1.2536,-1.2513,-1.2516,-1.2528,-1.2535,-1.2541,-1.2549,-1.2552,-1.2558,-1.2564,-1.2561,-1.2561,-1.2554,-1.2517,-1.2507,-1.2538,-1.2538,-1.2538,-1.2537,-1.2537,-1.2551,-1.2542,-1.256,-1.2566,-1.2576,-1.2588,-1.2585,-1.2598,-1.2603,-1.261,-1.2603,-1.2576,-1.2571,-1.2568,-1.256,-1.2603,-1.2603,-1.2603,-1.2603,-1.2572,-1.257,-1.2588,-1.2598,-1.2608,-1.2608,-1.263,-1.2634,-1.2637,-1.264,-1.2634,-1.2623,-1.262,-1.2618,-1.2614,-1.2606,-1.266,-1.266,-1.266,-1.2594,-1.2594,-1.2612,-1.2614,-1.2623,-1.2631,-1.2651,-1.2665,-1.2666,-1.2662,-1.2643,-1.264,-1.2623,-1.2618,-1.2611,-1.2604,-1.259,0,0]},{"header":{"parameterUnit":"m.s-1","parameterCategory":1,"la1":30.2992,"la2":30.254,"lo1":-89.0895,"lo2":-89.0443,"dy":0.0025,"dx":0.0025,"nx":19,"ny":19,"refTime":"2026-05-03T09:00:00:Z","depth":0,"parameterNumber":3,"parameterNumberName":"V-component_of_WINDS"},"data":[0,0,0,3.8266,3.8266,3.8238,3.8238,3.8192,3.8191,0,0,0,0,0,0,0,0,0,0,0,3.827,3.827,3.8266,3.8265,3.8238,3.8238,3.8192,3.8191,0,0,0,0,0,0,0,0,0,0,0,3.8271,3.827,3.827,3.8265,3.8238,3.8238,3.8192,3.8216,0,0,0,0,0,0,0,0,0,0,3.8244,3.8245,3.827,3.827,3.8265,3.8238,3.8238,3.8217,3.8214,3.82,0,3.8189,0,3.819,3.8188,3.8187,0,0,0,3.8268,3.8247,3.8244,3.827,3.8265,3.8238,3.8251,3.8216,3.8212,3.8197,3.8189,3.8187,3.8189,3.8187,3.8187,3.8106,3.8105,0,0,3.8269,3.8262,3.8246,3.8242,3.8248,3.8252,3.825,3.8214,3.8204,3.8188,3.8186,3.8188,3.8187,3.8186,3.8106,3.8106,0,0,0,3.8272,3.8263,3.8261,3.8243,3.8239,3.8251,3.8249,3.8205,3.8205,3.8186,3.8188,3.8187,3.8186,3.8107,3.8106,3.8076,0,0,0,3.8273,3.8265,3.8262,3.8257,3.824,3.8222,3.8241,3.8208,3.8204,3.8188,3.8187,3.8185,3.8107,3.8106,3.8078,3.8063,0,0,0,3.8273,3.8265,3.826,3.8257,3.8245,3.8223,3.8221,3.8207,3.8205,3.8187,3.8185,3.8108,3.8106,3.808,3.8066,3.804,0,0,0,3.8271,3.8233,3.826,3.8217,3.8245,3.8206,3.8221,3.8192,3.8173,3.8186,3.8107,3.8106,3.8081,3.8068,3.8042,3.8016,3.8005,0,0,3.8219,3.8226,3.8202,3.8225,3.818,3.8211,3.816,3.8148,3.8151,3.812,3.8118,3.8078,3.8066,3.804,3.7948,3.7939,0,0,0,3.8183,3.8165,3.8155,3.8139,3.8131,3.8122,3.8119,3.8115,3.8089,3.8135,3.8062,3.8055,3.804,3.8028,3.8021,3.8008,3.81,3.8101,3.8101,3.8098,3.8107,3.8067,3.8072,3.8056,3.8055,3.8041,3.8035,3.8046,3.8029,3.8019,3.7963,3.7949,3.7943,3.793,3.8007,3.8007,3.8007,3.8007,3.8022,3.7998,3.8017,3.7985,3.7993,3.7966,3.7963,3.7972,3.7946,3.797,3.7958,3.7983,3.7934,3.7922,3.8005,3.8005,3.8005,3.8006,3.8006,3.7966,3.7957,3.7954,3.7932,3.7914,3.792,3.7895,3.7903,3.791,3.7898,3.7888,3.7889,3.789,3.7893,3.7893,3.7893,3.7893,3.7892,3.7892,3.791,3.7908,3.7887,3.7877,3.7868,3.7857,3.7856,3.7846,3.7838,3.7845,3.7845,3.7858,3.7928,3.7945,3.7889,3.789,3.789,3.789,3.7891,3.7828,3.7848,3.7816,3.7808,3.7796,3.7777,3.7789,3.7769,3.7763,3.775,3.7766,3.7817,3.7824,3.783,3.7844,3.7765,3.7765,3.7765,3.7765,3.778,3.7786,3.7756,3.7742,3.7728,3.7736,3.7698,3.7697,3.7698,3.7694,3.7707,3.7727,3.7732,3.7736,3.7744,3.7757,3.7658,3.7658,3.7658,3.773,3.7735,3.7702,3.7707,3.7698,3.7691,3.7655,3.7636,3.7641,3.7653,3.7691,3.7695,3.7727,3.7738,3.7749,3.7761,3.7785,0,0]}]]